Weather History for KALB - July, 2013

Change the Weather History Date:

Sunday, July 28, 2013

  Actual Average Record
Temperature  
Mean Temperature 71 °F 72 °F  
Max Temperature 74 °F 82 °F 99 °F (1929)
Min Temperature 67 °F 62 °F 44 °F (1971)
Degree Days  
Heating Degree Days 0 0  
Month to date heating degree days 2 0  
Since 1 June heating degree days 57 52  
Since 1 July heating degree days 2 0  
Cooling Degree Days 6 7  
Month to date cooling degree days 337 193  
Year to date cooling degree days 529 341  
Since 1 June cooling degree days 480 311  
Growing Degree Days 20 (Base 50)    
Moisture  
Dew Point 65 °F    
Average Humidity 81    
Maximum Humidity 93    
Minimum Humidity 68    
Precipitation  
Precipitation 0.46 in 0.14 in 1.55 in (1982)
Month to date precipitation 5.39 3.73  
Year to date precipitation 28.81 22.30  
Sea Level Pressure  
Sea Level Pressure 29.95 in    
Wind  
Wind Speed 7 mph (South)    
Max Wind Speed 15 mph    
Max Gust Speed 25 mph    
Visibility 8 miles    
Events Rain , Thunderstorm    
T = Trace of Precipitation, MM = Missing Value Source: NWS Daily Summary

Daily Weather History Graph

Daily Weather History Graph

Search for Another Location

Airport or City:

Trip Planner

Search our weather history database for the weather conditions in past years. The results will help you decide how hot, cold, wet, or windy it might be!

Date:

Astronomy

Jul. 28, 2013 Rise Set
Actual Time 5:42 AM EDT 8:19 PM EDT
Civil Twilight 5:10 AM EDT 8:52 PM EDT
Nautical Twilight 4:29 AM EDT 9:32 PM EDT
Astronomical Twilight 3:43 AM EDT 10:18 PM EDT
Moon 11:28 PM EDT 12:33 PM EDT
Length of Visible Light 15h 41m
Length of Day
14h 37m
Waning Gibbous, 61% of the Moon is Illuminated
Jul 28
Waning Gibbous
Jul 29
Last Quarter
Aug 6
New
Aug 14
First Quarter
Aug 20
Full

Hourly Weather History & Observations

Time (EDT) Temp. Dew Point Humidity Pressure Visibility Wind Dir Wind Speed Gust Speed Precip Events Conditions
12:51 AM 71.1 °F 61.0 °F 70% 29.95 in 10.0 mi SSE 5.8 mph - N/A   Mostly Cloudy
1:51 AM 71.1 °F 61.0 °F 70% 29.95 in 10.0 mi SSE 5.8 mph - N/A   Mostly Cloudy
2:51 AM 70.0 °F 60.1 °F 71% 29.95 in 10.0 mi SSE 6.9 mph - N/A   Mostly Cloudy
3:51 AM 70.0 °F 61.0 °F 73% 29.95 in 10.0 mi SSE 3.5 mph - N/A   Mostly Cloudy
4:51 AM 70.0 °F 61.0 °F 73% 29.94 in 10.0 mi South 6.9 mph - N/A   Overcast
5:51 AM 70.0 °F 60.1 °F 71% 29.95 in 10.0 mi South 4.6 mph - N/A   Overcast
6:51 AM 69.1 °F 61.0 °F 75% 29.96 in 10.0 mi South 5.8 mph - N/A   Overcast
7:51 AM 68.0 °F 62.1 °F 81% 29.98 in 9.0 mi South 8.1 mph - 0.00 in Rain Light Rain
8:51 AM 66.9 °F 64.0 °F 90% 29.98 in 5.0 mi South 8.1 mph - 0.03 in Rain Light Rain
9:36 AM 68.0 °F 64.4 °F 88% 29.97 in 6.0 mi SSE 9.2 mph - 0.02 in Rain Light Rain
9:51 AM 68.0 °F 64.0 °F 87% 29.96 in 5.0 mi SSE 6.9 mph - 0.03 in Rain Light Rain
10:51 AM 69.1 °F 64.9 °F 87% 29.96 in 9.0 mi SSE 9.2 mph - 0.01 in   Light Drizzle
11:51 AM 72.0 °F 64.9 °F 78% 29.95 in 10.0 mi SSE 10.4 mph - 0.00 in   Mostly Cloudy
12:51 PM 71.1 °F 64.9 °F 81% 29.96 in 9.0 mi South 9.2 mph 17.3 mph 0.01 in Rain Light Rain
1:18 PM 69.8 °F 64.4 °F 83% 29.96 in 10.0 mi SSE 9.2 mph 25.3 mph 0.00 in Rain Light Rain
1:51 PM 70.0 °F 64.0 °F 81% 29.96 in 10.0 mi South 12.7 mph 25.3 mph 0.00 in   Overcast
2:12 PM 69.8 °F 62.6 °F 78% 29.96 in 10.0 mi South 8.1 mph 18.4 mph N/A   Overcast
2:35 PM 69.8 °F 64.4 °F 83% 29.96 in 5.0 mi South 8.1 mph - 0.00 in Rain Light Rain
2:51 PM 69.1 °F 64.9 °F 87% 29.95 in 10.0 mi South 4.6 mph - 0.01 in   Overcast
3:51 PM 70.0 °F 64.9 °F 84% 29.94 in 10.0 mi South 5.8 mph - 0.00 in   Overcast
4:51 PM 73.0 °F 66.0 °F 79% 29.93 in 10.0 mi South 4.6 mph - N/A   Overcast
5:51 PM 72.0 °F 66.9 °F 84% 29.94 in 10.0 mi SSW 4.6 mph - N/A   Overcast
6:13 PM 71.6 °F 66.2 °F 83% 29.94 in 10.0 mi SSE 3.5 mph - N/A Thunderstorm Thunderstorm
6:33 PM 71.6 °F 68.0 °F 88% 29.94 in 1.5 mi South 3.5 mph - 0.06 in Rain , Thunderstorm Heavy Thunderstorms and Rain
6:38 PM 71.6 °F 68.0 °F 88% 29.95 in 1.5 mi South 4.6 mph - 0.13 in Rain Heavy Rain
6:51 PM 71.1 °F 68.0 °F 90% 29.94 in 0.8 mi South 9.2 mph - 0.33 in Rain Heavy Rain
6:57 PM 71.6 °F 68.0 °F 88% 29.95 in 3.0 mi South 8.1 mph - 0.01 in Rain Light Rain
7:51 PM 71.1 °F 69.1 °F 93% 29.94 in 5.0 mi South 5.8 mph - 0.03 in Rain Light Rain
8:51 PM 71.1 °F 68.0 °F 90% 29.95 in 5.0 mi South 6.9 mph - 0.01 in   Overcast
9:30 PM 71.6 °F 66.2 °F 83% 29.95 in 9.0 mi SSE 5.8 mph - N/A   Overcast
9:51 PM 70.0 °F 66.9 °F 90% 29.95 in 9.0 mi South 6.9 mph - N/A   Overcast
10:51 PM 71.1 °F 66.0 °F 84% 29.96 in 10.0 mi South 6.9 mph - N/A   Overcast
11:51 PM 71.1 °F 66.0 °F 84% 29.96 in 10.0 mi South 6.9 mph - N/A   Overcast